Showing default

KOREASAT 116, 45920

Orbit data source: Space-Track

KOREASAT 116, 45920 is a South Korean payload satellite in GEO that was launched on Mon, 20 Jul 2020 UTC via an FALCON 9 launch vehicle from the Air Force Eastern Test Range (AFETR). Payload-class satellites include a variety of spacecraft equipped with specific instruments for various scientific and technological missions. These include communications satellites like Starlink; space stations such as the ISS; scientific satellites like the Hubble; Earth observation satellites from companies like Planet Labs, Umbra, and HawkEye 360; GPS; miniature CubeSats for education and research; and military/defense satellites.

Not visible in the next 10 days
Identifier
45920, 2020-048A
Orbit
GEO
Country
Flag of KRKR / SKOR
Related business
Manufacturer
Airbus/Toulouse
Mission
Operational Defense Communications
Bus & Motor
EUROSTAR 3000, R-4D?
Mass
~5,600 kg wet, ~3,000 kg dry
Launch date (UTC)
2020-07-20 (6 years ago)
Launch vehicle
FALCON 9
Launch site
Air Force Eastern Test Range (AFETR)
Object type
Payload
Rocket body
Debris
Shape & HBR
Box + 2 Pan, Unknown HBR
Radar Cross Section
33.163 m², Large (>1 m²)

Expand to show TLE details & history
Last TLE update: 2 days ago

TLE from 2 days ago
0 KOREASAT 116
1 45920U 20048A   26171.47730346 -.00000366  00000-0  00000+0 0  9990
2 45920   0.0123 314.2898 0000856 137.2809 105.1307  1.00274655 21675
Epoch: 2026-06-20T11:27Z
TLE epoch observation values (Epoch: 2026-06-20T11:27:19.018Z)
Latitude
-0.01763°
Longitude
116.20247°
Altitude
35,786.232 km
Speed
3.075 km/s
True Right ascension
13h 06m 53s
True Declination
0° 01' 03"
Sunlit
Object was in daylight at epoch
Visualization orbit readout
Latitude
Unknown
Longitude
Unknown
Altitude
Unknown
Speed
Unknown
Apparent Right ascension
Unknown
Apparent Declination
Unknown
Sunlit
N/A
Visualization observer readout
Local Sidereal Time
21:38:29
Azimuth
Unknown
Elevation
Unknown
Doppler factor
Unknown
Orbital elements
Apogee altitude
35,790.47 km
Perigee altitude
35,783.251 km
Semi-major axis
42,164.998 km
Eccentricity
0.00009
Inclination
0.0123°
RAAN
314.2898°
Arg. of periapsis
137.2809°
True anomaly
105.14017°
Mean anomaly
105.1307°
Eccentric anomaly
105.13543°
Mean motion
0.25068 °/min
Orbital period
1,436.11 mins
BSTAR
0
Loading maneuver chart data...
Computing Atmospheric mass density...
Loading historical data...
Loading historical data...
Loading historical data...
Loading historical data...
Loading historical data...
Loading historical data...
Loading historical data...
Other satellites on launch #48 in the year 2020 (2020-07-20 UTC)

Documentation

Showing up to 5 results
|